Location: Gälforsberget
(66.6500°N, 22.4167°E)
Time: 08:00:36
(UTC+00:00)

NOSS 0 Rocket - Pass Details

Date: 11 April 2026
Orbit: 935 x 953 km, 70.0° (Epoch: 13 May)

Event Time Altitude Azimuth Distance (km) Brightness Sun altitude
Rises 21:21:40 0° 222° (SW) 3,627 6.7 -13.7°
Reaches altitude 10° 21:24:12 10° 221° (SW) 2,683 6.0 -13.8°
Maximum altitude 21:30:25 72° 138° (SE) 1,005 3.9 -14.0°
Drops below altitude 10° 21:36:37 10° 56° (ENE) 2,685 6.6 -14.1°
Sets 21:39:09 0° 55° (NE) 3,629 7.3 -14.2°
